VTK225 UIII-UNAA

Flight info

Callsign VTK225
Flight time 1h 28m
Altitude 34000
Route BOGRA5C BOGRA A815 TUTEK M97 OBEKI W284 GEPRA GEPRA1F
Aircraft A319/M-SDE3FGHIRWY/LB1

Departure

Time 2026-05-06 12:30
Airport Irkutsk International Airport (UIII)

Arrival

Time 2026-05-06 13:59
Airport Abakan International Airport (UNAA)
Time Latitude Longitude Altitude Speed Heading
2026-05-06 11:37 52.27123 104.35921 1651 ft 0 kts 175°
2026-05-06 12:20 52.27122 104.35921 1651 ft 1 kts 175°
2026-05-06 12:20 52.27106 104.35923 1651 ft 4 kts 173°
2026-05-06 12:20 52.27085 104.35961 1651 ft 6 kts 102°
2026-05-06 12:20 52.27089 104.36040 1651 ft 8 kts 86°
2026-05-06 12:21 52.27092 104.36139 1651 ft 10 kts 87°
2026-05-06 12:21 52.27095 104.36257 1651 ft 11 kts 88°
2026-05-06 12:21 52.27078 104.36387 1651 ft 13 kts 109°
2026-05-06 12:21 52.27047 104.36530 1651 ft 14 kts 109°
2026-05-06 12:22 52.27012 104.36687 1651 ft 15 kts 110°
2026-05-06 12:22 52.26974 104.36857 1651 ft 16 kts 110°
2026-05-06 12:22 52.26945 104.36983 1651 ft 10 kts 110°
2026-05-06 12:22 52.26937 104.37089 1651 ft 9 kts 58°
2026-05-06 12:23 52.26983 104.37178 1651 ft 11 kts 52°
2026-05-06 12:23 52.26995 104.37301 1651 ft 12 kts 110°
2026-05-06 12:23 52.26960 104.37437 1651 ft 14 kts 113°
2026-05-06 12:23 52.26920 104.37587 1651 ft 15 kts 113°
2026-05-06 12:24 52.26878 104.37747 1651 ft 16 kts 113°
2026-05-06 12:24 52.26832 104.37921 1651 ft 17 kts 113°
2026-05-06 12:24 52.26783 104.38105 1651 ft 18 kts 114°
2026-05-06 12:24 52.26730 104.38300 1651 ft 19 kts 114°
2026-05-06 12:25 52.26676 104.38503 1651 ft 20 kts 114°
2026-05-06 12:25 52.26620 104.38715 1651 ft 21 kts 112°
2026-05-06 12:25 52.26562 104.38936 1651 ft 21 kts 113°
2026-05-06 12:25 52.26502 104.39162 1651 ft 22 kts 114°
2026-05-06 12:26 52.26439 104.39395 1651 ft 23 kts 114°
2026-05-06 12:26 52.26376 104.39633 1651 ft 23 kts 113°
2026-05-06 12:26 52.26311 104.39877 1651 ft 24 kts 114°
2026-05-06 12:26 52.26245 104.40125 1651 ft 24 kts 113°
2026-05-06 12:27 52.26179 104.40375 1651 ft 24 kts 113°
2026-05-06 12:27 52.26110 104.40631 1651 ft 25 kts 113°
2026-05-06 12:27 52.26050 104.40858 1651 ft 20 kts 113°
2026-05-06 12:27 52.26002 104.41036 1651 ft 13 kts 113°
2026-05-06 12:28 52.26005 104.41155 1651 ft 9 kts 55°
2026-05-06 12:28 52.26066 104.41209 1651 ft 11 kts 24°
2026-05-06 12:28 52.26124 104.41252 1651 ft 9 kts 24°
2026-05-06 12:28 52.26175 104.41289 1652 ft 3 kts 24°
2026-05-06 12:29 52.26199 104.41306 1652 ft 4 kts 24°
2026-05-06 12:29 52.26229 104.41289 1652 ft 6 kts 307°
2026-05-06 12:29 52.26237 104.41263 1651 ft 0 kts 294°
2026-05-06 12:29 52.26266 104.41153 1651 ft 38 kts 293°
2026-05-06 12:30 52.26474 104.40365 1656 ft 110 kts 293°
2026-05-06 12:30 52.26859 104.38920 1657 ft 165 kts 294°
2026-05-06 12:30 52.27342 104.37148 2194 ft 171 kts 291°
2026-05-06 12:30 52.27825 104.35348 2876 ft 175 kts 291°
2026-05-06 12:31 52.28311 104.33500 3512 ft 181 kts 291°
2026-05-06 12:31 52.28834 104.31502 3888 ft 202 kts 291°
2026-05-06 12:31 52.29455 104.29286 4262 ft 228 kts 300°
2026-05-06 12:31 52.30681 104.27502 4712 ft 256 kts 330°
2026-05-06 12:32 52.32378 104.26378 5525 ft 267 kts 341°
2026-05-06 12:32 52.34172 104.25533 6570 ft 269 kts 343°
2026-05-06 12:32 52.35989 104.24727 7563 ft 272 kts 342°
2026-05-06 12:32 52.37815 104.23866 8540 ft 274 kts 341°
2026-05-06 12:33 52.39652 104.22928 9529 ft 278 kts 340°
2026-05-06 12:33 52.41491 104.21929 10450 ft 282 kts 339°
2026-05-06 12:33 52.43426 104.20828 10809 ft 306 kts 338°
2026-05-06 12:33 52.45512 104.19609 11095 ft 330 kts 338°
2026-05-06 12:34 52.47753 104.18287 11379 ft 351 kts 338°
2026-05-06 12:34 52.50089 104.16914 11996 ft 360 kts 338°
2026-05-06 12:34 52.52468 104.15524 12698 ft 366 kts 338°
2026-05-06 12:34 52.54887 104.14113 13390 ft 372 kts 338°
2026-05-06 12:35 52.57344 104.12674 14064 ft 378 kts 338°
2026-05-06 12:35 52.59840 104.11208 14712 ft 382 kts 338°
2026-05-06 12:35 52.62324 104.09749 15380 ft 386 kts 338°
2026-05-06 12:35 52.64864 104.08256 16054 ft 389 kts 338°
2026-05-06 12:36 52.67428 104.06751 16726 ft 393 kts 338°
2026-05-06 12:36 52.70020 104.05224 17386 ft 397 kts 338°
2026-05-06 12:36 52.72631 104.03684 18039 ft 400 kts 338°
2026-05-06 12:36 52.75268 104.02129 18650 ft 404 kts 338°
2026-05-06 12:37 52.77925 104.00560 19224 ft 406 kts 338°
2026-05-06 12:37 52.80592 103.98982 19826 ft 408 kts 339°
2026-05-06 12:37 52.83264 103.97394 20423 ft 409 kts 339°
2026-05-06 12:37 52.85943 103.95799 21008 ft 410 kts 339°
2026-05-06 12:38 52.88634 103.94194 21570 ft 411 kts 339°
2026-05-06 12:38 52.91325 103.92587 22137 ft 412 kts 339°
2026-05-06 12:38 52.94018 103.90978 22681 ft 413 kts 339°
2026-05-06 12:38 52.96734 103.89353 23181 ft 415 kts 339°
2026-05-06 12:39 52.99457 103.87722 23675 ft 417 kts 339°
2026-05-06 12:39 53.02190 103.86082 24093 ft 418 kts 339°
2026-05-06 12:39 53.04931 103.84435 24504 ft 419 kts 339°
2026-05-06 12:39 53.07673 103.82785 24996 ft 418 kts 339°
2026-05-06 12:40 53.10410 103.81135 25462 ft 417 kts 339°
2026-05-06 12:40 53.13142 103.79485 25869 ft 418 kts 339°
2026-05-06 12:40 53.15816 103.77741 26245 ft 419 kts 335°
2026-05-06 12:40 53.18459 103.75680 26615 ft 420 kts 335°
2026-05-06 12:41 53.21110 103.73613 26958 ft 421 kts 335°
2026-05-06 12:41 53.23769 103.71539 27323 ft 422 kts 335°
2026-05-06 12:41 53.26442 103.69447 27666 ft 424 kts 335°
2026-05-06 12:41 53.29115 103.67349 28002 ft 425 kts 335°
2026-05-06 12:42 53.31796 103.65242 28325 ft 426 kts 335°
2026-05-06 12:42 53.34479 103.63134 28651 ft 427 kts 335°
2026-05-06 12:42 53.37165 103.61023 29109 ft 425 kts 335°
2026-05-06 12:42 53.39835 103.58919 29604 ft 423 kts 335°
2026-05-06 12:43 53.42490 103.56822 30116 ft 421 kts 335°
2026-05-06 12:43 53.45119 103.54697 30545 ft 418 kts 332°
2026-05-06 12:43 53.47522 103.51959 30915 ft 418 kts 321°
2026-05-06 12:43 53.49542 103.48482 31463 ft 416 kts 311°
2026-05-06 12:44 53.51136 103.44430 31923 ft 417 kts 301°
2026-05-06 12:44 53.52257 103.39904 32324 ft 421 kts 291°
2026-05-06 12:44 53.52955 103.35106 32721 ft 423 kts 287°
2026-05-06 12:44 53.53605 103.30283 33113 ft 422 kts 287°
2026-05-06 12:45 53.54248 103.25480 33524 ft 421 kts 287°
2026-05-06 12:45 53.54878 103.20739 33933 ft 420 kts 287°
2026-05-06 12:45 53.56151 103.11164 34115 ft 419 kts 287°
2026-05-06 12:46 53.56786 103.06372 34114 ft 419 kts 287°
2026-05-06 12:46 53.58045 102.96852 34113 ft 415 kts 288°
2026-05-06 12:47 53.59283 102.87375 34112 ft 414 kts 288°
2026-05-06 12:47 53.60519 102.77917 34111 ft 414 kts 288°
2026-05-06 12:48 53.61755 102.68444 34105 ft 414 kts 288°
2026-05-06 12:48 53.62968 102.59022 34108 ft 414 kts 287°
2026-05-06 12:49 53.64168 102.49541 34106 ft 413 kts 288°
2026-05-06 12:49 53.65363 102.40094 34124 ft 410 kts 288°
2026-05-06 12:50 53.66556 102.30685 34125 ft 409 kts 288°
2026-05-06 12:50 53.67726 102.21370 34116 ft 408 kts 288°
2026-05-06 12:51 53.68890 102.11989 34115 ft 408 kts 288°
2026-05-06 12:51 53.70045 102.02614 34081 ft 407 kts 288°
2026-05-06 12:52 53.71192 101.93279 34105 ft 405 kts 288°
2026-05-06 12:52 53.72322 101.83975 34112 ft 404 kts 288°
2026-05-06 12:53 53.73438 101.74678 34111 ft 403 kts 288°
2026-05-06 12:53 53.74550 101.65406 34101 ft 402 kts 288°
2026-05-06 12:54 53.75646 101.56212 34099 ft 402 kts 287°
2026-05-06 12:54 53.76738 101.46942 34084 ft 401 kts 288°
2026-05-06 12:55 53.77822 101.37705 34095 ft 399 kts 288°
2026-05-06 12:55 53.78904 101.28493 34093 ft 398 kts 288°
2026-05-06 12:56 53.79968 101.19299 34086 ft 398 kts 287°
2026-05-06 12:56 53.81028 101.10112 34077 ft 398 kts 287°
2026-05-06 12:57 53.81899 101.02473 34041 ft 398 kts 287°
2026-05-06 12:57 53.83099 100.91780 34042 ft 397 kts 287°
2026-05-06 12:58 53.84133 100.82585 34048 ft 398 kts 287°
2026-05-06 12:58 53.84987 100.74924 34056 ft 398 kts 287°
2026-05-06 12:59 53.86011 100.65721 34058 ft 397 kts 287°
2026-05-06 12:59 53.87035 100.56505 34059 ft 398 kts 287°
2026-05-06 13:00 53.88040 100.47289 34032 ft 398 kts 286°
2026-05-06 13:00 53.89040 100.38061 34039 ft 398 kts 286°
2026-05-06 13:01 53.90038 100.28811 34049 ft 399 kts 286°
2026-05-06 13:01 53.91033 100.19539 34050 ft 399 kts 286°
2026-05-06 13:02 53.92017 100.10253 34050 ft 399 kts 286°
2026-05-06 13:02 53.92989 100.01037 34047 ft 399 kts 286°
2026-05-06 13:03 53.93958 99.91748 34049 ft 400 kts 286°
2026-05-06 13:03 53.94920 99.82464 34050 ft 400 kts 286°
2026-05-06 13:04 53.95873 99.73164 34051 ft 400 kts 286°
2026-05-06 13:04 53.96820 99.63848 34047 ft 400 kts 286°
2026-05-06 13:05 53.97767 99.54537 34046 ft 400 kts 285°
2026-05-06 13:05 53.98708 99.45213 34034 ft 400 kts 285°
2026-05-06 13:06 53.99640 99.35883 34048 ft 400 kts 285°
2026-05-06 13:06 54.00559 99.26548 34058 ft 400 kts 285°
2026-05-06 13:07 54.01474 99.17215 34058 ft 400 kts 285°
2026-05-06 13:07 54.02379 99.07875 34058 ft 400 kts 285°
2026-05-06 13:08 54.03266 98.98576 34062 ft 400 kts 285°
2026-05-06 13:08 54.04151 98.89226 34049 ft 400 kts 284°
2026-05-06 13:09 54.05040 98.79872 34052 ft 400 kts 284°
2026-05-06 13:09 54.05923 98.70532 34055 ft 400 kts 284°
2026-05-06 13:10 54.06802 98.61174 34059 ft 400 kts 284°
2026-05-06 13:10 54.07663 98.51881 34062 ft 400 kts 284°
2026-05-06 13:11 54.08511 98.42504 34043 ft 400 kts 283°
2026-05-06 13:11 54.09358 98.33129 34053 ft 400 kts 283°
2026-05-06 13:12 54.10209 98.23759 34065 ft 400 kts 283°
2026-05-06 13:12 54.11034 98.14353 34067 ft 400 kts 283°
2026-05-06 13:13 54.11856 98.05028 34073 ft 400 kts 283°
2026-05-06 13:13 54.12675 97.95636 34076 ft 401 kts 283°
2026-05-06 13:14 54.13489 97.86246 34068 ft 400 kts 282°
2026-05-06 13:14 54.14306 97.76874 34086 ft 399 kts 282°
2026-05-06 13:15 54.15096 97.67487 34085 ft 399 kts 282°
2026-05-06 13:15 54.15888 97.58111 34096 ft 399 kts 282°
2026-05-06 13:16 54.16676 97.48737 34097 ft 398 kts 282°
2026-05-06 13:16 54.17445 97.39438 34094 ft 398 kts 281°
2026-05-06 13:17 54.18207 97.30091 34122 ft 396 kts 281°
2026-05-06 13:17 54.18957 97.20783 34136 ft 395 kts 281°
2026-05-06 13:18 54.19693 97.11496 34129 ft 394 kts 281°
2026-05-06 13:18 54.20435 97.02217 34135 ft 394 kts 281°
2026-05-06 13:19 54.21172 96.92941 34141 ft 394 kts 281°
2026-05-06 13:19 54.21895 96.83655 34123 ft 394 kts 281°
2026-05-06 13:20 54.22602 96.74449 34146 ft 393 kts 281°
2026-05-06 13:20 54.23305 96.65181 34148 ft 393 kts 281°
2026-05-06 13:21 54.24013 96.55914 34158 ft 393 kts 281°
2026-05-06 13:21 54.24698 96.46630 34153 ft 393 kts 280°
2026-05-06 13:22 54.25381 96.37357 34143 ft 393 kts 280°
2026-05-06 13:22 54.26066 96.28078 34148 ft 393 kts 280°
2026-05-06 13:23 54.26548 96.18735 34156 ft 395 kts 276°
2026-05-06 13:23 54.26743 96.09333 34161 ft 396 kts 275°
2026-05-06 13:24 54.26906 95.99969 34164 ft 396 kts 276°
2026-05-06 13:24 54.27124 95.90550 34167 ft 395 kts 276°
2026-05-06 13:25 54.27360 95.81137 34147 ft 395 kts 275°
2026-05-06 13:25 54.27578 95.71728 34158 ft 396 kts 275°
2026-05-06 13:26 54.27776 95.62317 34165 ft 396 kts 275°
2026-05-06 13:26 54.27969 95.52893 34159 ft 396 kts 275°
2026-05-06 13:27 54.28167 95.43478 34163 ft 396 kts 275°
2026-05-06 13:27 54.28355 95.34111 34162 ft 396 kts 275°
2026-05-06 13:28 54.28530 95.24694 34140 ft 396 kts 274°
2026-05-06 13:28 54.28704 95.15276 34145 ft 396 kts 275°
2026-05-06 13:29 54.28884 95.05843 34148 ft 396 kts 274°
2026-05-06 13:29 54.29040 94.96416 34151 ft 396 kts 274°
2026-05-06 13:30 54.29178 94.86976 34142 ft 396 kts 274°
2026-05-06 13:30 54.29316 94.77608 34142 ft 396 kts 274°
2026-05-06 13:31 54.28607 94.68198 34139 ft 403 kts 259°
2026-05-06 13:31 54.27141 94.58923 34134 ft 404 kts 259°
2026-05-06 13:32 54.25668 94.49639 34137 ft 404 kts 259°
2026-05-06 13:32 54.24209 94.40360 34124 ft 404 kts 259°
2026-05-06 13:33 54.22727 94.31095 34128 ft 404 kts 259°
2026-05-06 13:33 54.21239 94.21822 34097 ft 404 kts 259°
2026-05-06 13:34 54.19747 94.12555 34099 ft 405 kts 259°
2026-05-06 13:34 54.18243 94.03351 34104 ft 405 kts 259°
2026-05-06 13:35 54.16734 93.94072 34083 ft 407 kts 259°
2026-05-06 13:35 54.15215 93.84757 34086 ft 408 kts 259°
2026-05-06 13:36 54.13684 93.75423 34077 ft 408 kts 259°
2026-05-06 13:36 54.12134 93.66106 34073 ft 408 kts 258°
2026-05-06 13:37 54.10581 93.56792 34062 ft 409 kts 258°
2026-05-06 13:37 54.09020 93.47470 34061 ft 409 kts 258°
2026-05-06 13:38 54.07456 93.38209 34065 ft 410 kts 258°
2026-05-06 13:38 54.05877 93.28871 34055 ft 410 kts 258°
2026-05-06 13:39 54.04289 93.19548 34054 ft 410 kts 258°
2026-05-06 13:39 54.02689 93.10218 34044 ft 410 kts 258°
2026-05-06 13:40 54.01091 93.00894 34039 ft 411 kts 258°
2026-05-06 13:40 53.99481 92.91563 34025 ft 411 kts 258°
2026-05-06 13:41 53.97877 92.82301 34030 ft 411 kts 258°
2026-05-06 13:41 53.96248 92.72996 34020 ft 412 kts 258°
2026-05-06 13:42 53.94608 92.63671 34013 ft 412 kts 258°
2026-05-06 13:42 53.93787 92.59011 33137 ft 414 kts 257°
2026-05-06 13:42 53.92953 92.54291 31959 ft 421 kts 257°
2026-05-06 13:42 53.92107 92.49504 30812 ft 426 kts 256°
2026-05-06 13:43 53.91248 92.44649 29629 ft 431 kts 256°
2026-05-06 13:43 53.90381 92.39763 28355 ft 434 kts 256°
2026-05-06 13:43 53.89506 92.34842 27129 ft 437 kts 256°
2026-05-06 13:43 53.88625 92.29900 25939 ft 439 kts 255°
2026-05-06 13:44 53.87734 92.24947 24801 ft 440 kts 255°
2026-05-06 13:44 53.87140 92.21659 24068 ft 440 kts 255°
2026-05-06 13:44 53.85882 92.15058 22454 ft 442 kts 250°
2026-05-06 13:44 53.85015 92.11943 21637 ft 444 kts 243°
2026-05-06 13:45 53.83284 92.07601 20535 ft 446 kts 233°
2026-05-06 13:45 53.78938 92.00287 18885 ft 434 kts 226°
2026-05-06 13:45 53.76762 91.96785 18042 ft 429 kts 227°
2026-05-06 13:46 53.74612 91.93329 17159 ft 424 kts 227°
2026-05-06 13:46 53.72484 91.89913 16292 ft 418 kts 227°
2026-05-06 13:46 53.70388 91.86546 15487 ft 413 kts 227°
2026-05-06 13:46 53.68342 91.83257 14734 ft 408 kts 227°
2026-05-06 13:47 53.66296 91.79968 14014 ft 404 kts 227°
2026-05-06 13:47 53.64269 91.76717 13164 ft 398 kts 227°
2026-05-06 13:47 53.62274 91.73529 12205 ft 392 kts 227°
2026-05-06 13:47 53.60329 91.70435 11844 ft 373 kts 227°
2026-05-06 13:48 53.58504 91.67553 11715 ft 347 kts 227°
2026-05-06 13:48 53.56797 91.64861 11581 ft 325 kts 227°
2026-05-06 13:48 53.55197 91.62341 11466 ft 306 kts 228°
2026-05-06 13:48 53.53688 91.59962 11330 ft 289 kts 229°
2026-05-06 13:49 53.52261 91.57665 11026 ft 280 kts 230°
2026-05-06 13:49 53.50880 91.55386 10617 ft 276 kts 230°
2026-05-06 13:49 53.49525 91.53129 10262 ft 271 kts 230°
2026-05-06 13:49 53.48187 91.50907 9953 ft 268 kts 230°
2026-05-06 13:50 53.46866 91.48717 9819 ft 266 kts 230°
2026-05-06 13:50 53.45562 91.46577 9686 ft 257 kts 230°
2026-05-06 13:50 53.44302 91.44524 9552 ft 248 kts 230°
2026-05-06 13:50 53.43110 91.42563 9392 ft 238 kts 233°
2026-05-06 13:51 53.42285 91.40248 9089 ft 228 kts 255°
2026-05-06 13:51 53.42112 91.37646 8755 ft 225 kts 276°
2026-05-06 13:51 53.42577 91.35143 8407 ft 227 kts 296°
2026-05-06 13:51 53.43374 91.32849 8052 ft 227 kts 297°
2026-05-06 13:52 53.44161 91.30590 7702 ft 222 kts 296°
2026-05-06 13:52 53.44920 91.28416 7368 ft 215 kts 296°
2026-05-06 13:52 53.45665 91.26274 7047 ft 209 kts 296°
2026-05-06 13:52 53.46390 91.24182 6735 ft 208 kts 296°
2026-05-06 13:53 53.47144 91.22089 6408 ft 210 kts 302°
2026-05-06 13:53 53.48293 91.20542 6017 ft 219 kts 330°
2026-05-06 13:53 53.49826 91.20114 5494 ft 238 kts
2026-05-06 13:53 53.51438 91.21058 5038 ft 245 kts 21°
2026-05-06 13:54 53.52957 91.22260 4713 ft 242 kts 22°
2026-05-06 13:54 53.54467 91.23439 4419 ft 236 kts 22°
2026-05-06 13:54 53.55941 91.24573 4148 ft 230 kts 23°
2026-05-06 13:54 53.57375 91.25674 3899 ft 223 kts 23°
2026-05-06 13:55 53.58776 91.26751 3606 ft 219 kts 24°
2026-05-06 13:55 53.60140 91.27801 3363 ft 213 kts 25°
2026-05-06 13:55 53.61475 91.28830 3118 ft 208 kts 26°
2026-05-06 13:55 53.62761 91.29821 2868 ft 204 kts 26°
2026-05-06 13:56 53.64043 91.30809 2624 ft 199 kts 27°
2026-05-06 13:56 53.65268 91.31754 2407 ft 183 kts 28°
2026-05-06 13:56 53.66359 91.32593 2182 ft 163 kts 29°
2026-05-06 13:56 53.67341 91.33352 1999 ft 148 kts 29°
2026-05-06 13:57 53.68247 91.34054 1817 ft 139 kts 31°
2026-05-06 13:57 53.69110 91.34723 1644 ft 135 kts 29°
2026-05-06 13:57 53.69958 91.35380 1473 ft 134 kts 27°
2026-05-06 13:57 53.70799 91.36032 1347 ft 132 kts 27°
2026-05-06 13:58 53.71624 91.36667 1179 ft 130 kts 27°
2026-05-06 13:58 53.72444 91.37297 956 ft 129 kts 27°
2026-05-06 13:58 53.73252 91.37932 818 ft 128 kts 28°
2026-05-06 13:58 53.73994 91.38511 801 ft 97 kts 24°
2026-05-06 13:59 53.74455 91.38867 801 ft 54 kts 24°
2026-05-06 13:59 53.74769 91.39110 803 ft 40 kts 24°
2026-05-06 13:59 53.74941 91.39244 804 ft 16 kts 24°
2026-05-06 13:59 53.75009 91.39308 803 ft 6 kts 62°
2026-05-06 14:00 53.74994 91.39394 800 ft 9 kts 115°
2026-05-06 14:00 53.74967 91.39492 801 ft 10 kts 115°
2026-05-06 14:00 53.74936 91.39604 801 ft 10 kts 116°
2026-05-06 14:00 53.74919 91.39704 801 ft 9 kts 80°
2026-05-06 14:01 53.74973 91.39729 803 ft 10 kts 342°
2026-05-06 14:01 53.75022 91.39703 803 ft 1 kts 348°
2026-05-06 14:01 53.75034 91.39723 803 ft 4 kts 58°
2026-05-06 14:01 53.75046 91.39786 804 ft 7 kts 71°
2026-05-06 14:02 53.75058 91.39861 804 ft 3 kts 92°
2026-05-06 14:02 53.75038 91.39885 804 ft 4 kts 159°
2026-05-06 14:02 53.75018 91.39895 804 ft 3 kts 162°
2026-05-06 14:02 53.75004 91.39902 804 ft 2 kts 163°
2026-05-06 14:03 53.75003 91.39903 804 ft 0 kts 163°